Regional Weather Roundup
Issued by NWS Charleston, SC

Current Version | Previous Version | Graphics & Text | Print | Product List | Glossary On
Versions: 1 2 3 4 5 6 7 8 9 10 11 12 13 14 15 16 17 18 19 20 21 22 23 24 25 26 27 28 29 30 31 32 33 34 35 36 37 38 39 40 41 42 43 44 45 46 47 48 49 50
000 ASUS42 KCHS 060212 RWRCHS REGIONAL WEATHER ROUNDUP NATIONAL WEATHER SERVICE CHARLESTON SC 900 PM EST THU MAR 05 2015 NOTE: "FAIR" INDICATES FEW OR NO CLOUDS BELOW 12,000 FEET WITH NO SIGNIFICANT WEATHER AND/OR OBSTRUCTIONS TO VISIBILITY. NOT ALL STATIONS ARE QUALITY CONTROLLED BY THE NATIONAL WEATHER SERVICE. USE DATA WITH CAUTION...ESPECIALLY DEWPOINT OBSERVATIONS. SCZ027-030-031-034>040-042>050-060300- ...SOUTHEAST SOUTH CAROLINA... CITY SKY/WX TMP DP RH WIND PRES REMARKS N CHARLESTON LGT RAIN 65 63 93 W5 30.09R WATERFRONT PRK N/A 64 N/A N/A W3 N/A MOUNT PLEASANT DRIZZLE 64 64 100 CALM 30.09R PINOPOLIS NOT AVBL MONCKS CORNER CLOUDY 54 52 94 N9 30.12R SUMMERVILLE CLOUDY 63 63 100 N15G22 30.11R BEAUFORT MCAS CLOUDY 63 61 93 W9 30.10R BEAUFORT ARPT CLOUDY 63 63 100 W8 30.10R HILTON HEAD IS LGT RAIN 64 63 94 W7 30.11R WALTERBORO CLOUDY 63 63 100 NW8 30.10R ALLENDALE CLOUDY 61 59 94 VRB5 30.12R ...SOUTHERN MIDLANDS AND PEE DEE... CITY SKY/WX TMP DP RH WIND PRES REMARKS GEORGETOWN NOT AVBL KINGSTREE NOT AVBL ORANGEBURG LGT RAIN 49 45 86 NE13G24 30.17R BARNWELL CLOUDY 59 57 94 NW7 30.14R AIKEN DRIZZLE 50 46 87 N17 30.20R MANNING LGT RAIN N/A N/A N/A N12G23 30.17R COLUMBIA LGT RAIN 46 43 89 N13G20 30.21R FOG SUMTER LGT RAIN 43 41 93 NE18 30.19R FOG FLORENCE LGT RAIN 42 39 89 N17G28 30.22R MYRTLE BEACH CLOUDY 45 41 87 N15 30.14R FOG N MYRTLE BEACH LGT RAIN 43 40 89 NE10 30.13S $$ GAZ063-065-086>088-099>101-113>116-118-119-134>141-150-060300- ...SOUTHEAST GEORGIA... CITY SKY/WX TMP DP RH WIND PRES REMARKS SAVANNAH ARPT CLOUDY 63 59 87 W7 30.10R HUNTER AAF CLOUDY 63 63 100 W7 30.08R FORT STEWART LGT RAIN 63 59 88 NW7 30.10R STATESBORO CLOUDY 56 56 100 NW17 30.15R SYLVANIA RAIN 58 56 94 NW18G24 30.14R CLAXTON CLOUDY 59 55 88 NW12 30.13R ...CSRA...CENTRAL AND FAR SOUTHEAST GEORGIA... CITY SKY/WX TMP DP RH WIND PRES REMARKS THOMSON CLOUDY 48 43 81 W7 30.23R AUGUSTA-BUSH CLOUDY 53 45 74 NW12 30.17R AUGUSTA-DANIEL CLOUDY 52 43 71 NW14 30.18R SWAINSBORO FAIR 50 43 76 NW9 30.19R VIDALIA CLOUDY 54 50 87 NW18G26 30.17R EASTMAN FAIR 48 46 91 NW9 30.22R HAZLEHURST CLOUDY 57 56 95 N20G25 30.16R ALMA CLOUDY 59 55 87 NW13 30.15R WAYCROSS RAIN 65 64 95 NW12 30.14R JESUP CLOUDY 64 63 94 NW9 30.13R BAXLEY CLOUDY 61 57 88 NW15G21 30.15R BRUNSWICK CLOUDY 64 61 88 CALM 30.11S SAINT SIMONS LGT RAIN 65 63 93 W3 30.10R $$ SCZ027-028-034-036>038-045-046-048>050-GAZ119-141-060300- ...LAKE AND SUPPLEMENTAL COASTAL OBSERVATIONS... STATION/POSITION TIME TEMP WIND PRES WAVE SWELL AIR SEA DIR/SP/G HT/PER HT/PER/DIR (UTC) (F) (DEG/KT/KT) (MB) (FT/S) (FT/S/D) UPR LAKE MARION NOT AVBL WINYAH BAY NOT AVBL LAKE MURRAY 0100 45 10/ 4/ 11 1020.7R ACE BASIN NERRS NOT AVBL FORT PULASKI 0100 62 54 300/ 8/ 9 1019.0R SAPELO ISLAND 0100 65 300/ 7 1019.0R $$ ANZ835-935-AMZ111-154-330-350-352-354-370-450-454-472-060300- ...C-MAN AND BUOY OBSERVATIONS... STATION/POSITION TIME TEMP WIND PRES WAVE SWELL AIR SEA DIR/SP/G HT/PER HT/PER/DIR (UTC) (F) (DEG/KT/KT) (MB) (FT/S) (FT/S/D) BUOY 41004 0150 65 69 320/ 16/ 17 1017.7R 5/ 6 3/10 BUOY 41008 0150 60 56 280/ 2/ 4 1019.5R 3/11 3/120/11 FOLLY BEACH CMAN 0200 63 260/ 2/ 3 1019.4R CAPERS NEARSHORE 0100 60 280/ 4/ 4 N/A FRIPP NEARSHORE 0100 57 250/ 6/ 8 1018.0R STATION/POSITION TIME TEMP WIND PRES WAVE SWELL AIR SEA DIR/SP/G HT/PER HT/PER/DIR (UTC) (F) (DEG/KT/KT) (MB) (FT/S) (FT/S/D) 5E ST. MARYS GA 0121 57 N/A 3/ 5 2/120/11 FRYING PAN BUOY 0150 53 65 20/ 17/ 21 1019.2R 6/ 8 2/110/11 BUOY 41025 NOT AVBL CAPE LOOKOUT NC 0100 50/ 22/ 25 1018.8F BUOY 41002 0150 74 73 230/ 23/ 27 1019.1S 7/ 8 5/260/ 8 BUOY 41010 0120 75 75 180/ 12/ 14 1020.3R ST AUGUSTINE FL 0200 73 240/ 4/ 5 1020.3R $$

USA.gov is the U.S. government's official web portal to all federal, state and local government web resources and services.